| time (UTC) | temp F | wind direction | speed MPH | gust MPH | rain 1hr in | rain 24hr in | rain mn in | humidity % | barometer mb |
| 20260905083018 | 70 | 151 | 0.0 | 0.0 | 0.00 | 0.00 | 0.00 | 95 | 1014.3 |
| 20260905082513 | 71 | 347 | 0.0 | 0.0 | 0.00 | 0.00 | 0.00 | 95 | 1014.2 |
| 20260905082009 | 71 | 124 | 0.0 | 0.0 | 0.00 | 0.00 | 0.00 | 95 | 1014.5 |
| 20260905081458 | 71 | 187 | 0.0 | 0.0 | 0.00 | 0.00 | 0.00 | 95 | 1014.6 |
| 20260905080957 | 71 | 145 | 0.0 | 0.0 | 0.00 | 0.00 | 0.00 | 95 | 1014.6 |
| 20260905080452 | 71 | 152 | 0.0 | 0.0 | 0.00 | 0.00 | 0.00 | 95 | 1014.6 |
| 20260905075951 | 71 | 275 | 0.0 | 1.0 | 0.00 | 0.00 | 0.00 | 95 | 1014.8 |
| 20260905075446 | 71 | 45 | 0.0 | 1.0 | 0.00 | 0.00 | 0.00 | 95 | 1014.7 |
| 20260905074944 | 71 | 320 | 0.0 | 1.0 | 0.00 | 0.00 | 0.00 | 95 | 1014.5 |
| 20260905074440 | 71 | 347 | 0.0 | 0.0 | 0.00 | 0.00 | 0.00 | 95 | 1014.5 |
| 20260905073935 | 71 | 151 | 0.0 | 0.0 | 0.00 | 0.00 | 0.00 | 95 | 1014.6 |
| 20260905073430 | 70 | 267 | 0.0 | 1.0 | 0.00 | 0.00 | 0.00 | 94 | 1014.8 |
| 20260905072925 | 70 | 24 | 0.0 | 0.0 | 0.00 | 0.00 | 0.00 | 94 | 1014.6 |
| 20260905072420 | 70 | 343 | 0.0 | 0.0 | 0.00 | 0.00 | 0.00 | 94 | 1015.0 |
| 20260905071916 | 70 | 343 | 0.0 | 0.0 | 0.00 | 0.00 | 0.00 | 94 | 1015.0 |
| 20260905071413 | 71 | 343 | 0.0 | 0.0 | 0.00 | 0.00 | 0.00 | 94 | 1015.0 |
| 20260905070912 | 71 | 343 | 0.0 | 0.0 | 0.00 | 0.00 | 0.00 | 94 | 1015.0 |
| 20260905070409 | 71 | 238 | 0.0 | 0.0 | 0.00 | 0.00 | 0.00 | 94 | 1015.3 |
| 20260905065908 | 71 | 238 | 0.0 | 0.0 | 0.00 | 0.00 | 0.00 | 94 | 1015.4 |
| 20260905065407 | 71 | 238 | 0.0 | 0.0 | 0.00 | 0.00 | 0.00 | 94 | 1015.7 |
| 20260905064902 | 71 | 238 | 0.0 | 0.0 | 0.00 | 0.00 | 0.00 | 94 | 1015.5 |
| 20260905064357 | 71 | 238 | 0.0 | 0.0 | 0.00 | 0.00 | 0.00 | 94 | 1015.2 |
| 20260905063856 | 71 | 238 | 0.0 | 0.0 | 0.00 | 0.00 | 0.00 | 94 | 1015.4 |
| 20260905063352 | 71 | 342 | 0.0 | 0.0 | 0.00 | 0.00 | 0.00 | 94 | 1015.9 |
| 20260905062848 | 71 | 318 | 0.0 | 0.0 | 0.00 | 0.00 | 0.00 | 94 | 1015.7 |
| 20260905062342 | 71 | 138 | 0.0 | 0.0 | 0.00 | 0.00 | 0.00 | 94 | 1015.7 |
| 20260905061837 | 71 | 138 | 0.0 | 0.0 | 0.00 | 0.00 | 0.00 | 94 | 1015.8 |
| 20260905061337 | 71 | 138 | 0.0 | 0.0 | 0.00 | 0.00 | 0.00 | 94 | 1015.8 |
| 20260905060831 | 71 | 251 | 0.0 | 0.0 | 0.00 | 0.00 | 0.00 | 94 | 1016.0 |
| 20260905060328 | 71 | 251 | 0.0 | 0.0 | 0.00 | 0.00 | 0.00 | 94 | 1016.1 |
| 20260905055827 | 71 | 251 | 0.0 | 0.0 | 0.00 | 0.00 | 0.00 | 94 | 1016.1 |
| 20260905055322 | 71 | 251 | 0.0 | 0.0 | 0.00 | 0.00 | 0.00 | 94 | 1015.9 |
| 20260905054822 | 71 | 251 | 0.0 | 0.0 | 0.00 | 0.00 | 0.00 | 94 | 1016.3 |
| 20260905054319 | 71 | 263 | 0.0 | 0.0 | 0.00 | 0.00 | 0.00 | 94 | 1016.2 |
| 20260905053817 | 71 | 263 | 0.0 | 0.0 | 0.00 | 0.00 | 0.00 | 94 | 1016.3 |
| 20260905053314 | 71 | 150 | 0.0 | 0.0 | 0.00 | 0.00 | 0.00 | 94 | 1016.5 |
| 20260905052814 | 71 | 150 | 0.0 | 0.0 | 0.00 | 0.00 | 0.00 | 94 | 1016.8 |
| 20260905052313 | 71 | 290 | 0.0 | 0.0 | 0.00 | 0.00 | 0.00 | 94 | 1016.9 |
| 20260905051813 | 71 | 290 | 0.0 | 0.0 | 0.00 | 0.00 | 0.00 | 94 | 1016.8 |
| 20260905051309 | 71 | 290 | 0.0 | 0.0 | 0.00 | 0.00 | 0.00 | 94 | 1016.7 |
| 20260905050806 | 71 | 290 | 0.0 | 0.0 | 0.00 | 0.00 | 0.00 | 94 | 1017.0 |
| 20260905050302 | 72 | 290 | 0.0 | 0.0 | 0.00 | 0.00 | 0.00 | 94 | 1017.1 |
| 20260905045757 | 72 | 290 | 0.0 | 0.0 | 0.00 | 0.00 | 0.00 | 94 | 1017.0 |
| 20260905045252 | 72 | 238 | 0.0 | 0.0 | 0.00 | 0.00 | 0.00 | 94 | 1017.2 |
| 20260905044753 | 72 | 163 | 0.0 | 0.0 | 0.00 | 0.00 | 0.00 | 94 | 1017.4 |
| 20260905044248 | 72 | 150 | 0.0 | 0.0 | 0.00 | 0.00 | 0.00 | 94 | 1017.5 |
| 20260905043746 | 72 | 150 | 0.0 | 0.0 | 0.00 | 0.00 | 0.00 | 94 | 1017.3 |
| 20260905043241 | 72 | 223 | 0.0 | 0.0 | 0.00 | 0.00 | 0.00 | 94 | 1017.5 |
| 20260905042737 | 72 | 223 | 0.0 | 0.0 | 0.00 | 0.00 | 0.00 | 94 | 1017.3 |
| 20260905042236 | 72 | 251 | 0.0 | 0.0 | 0.00 | 0.00 | 0.00 | 94 | 1017.6 |
| 20260905041731 | 72 | 250 | 0.0 | 1.0 | 0.00 | 0.00 | 0.00 | 94 | 1017.5 |
| 20260905041227 | 72 | 263 | 0.0 | 3.0 | 0.00 | 0.00 | 0.00 | 94 | 1017.6 |
| 20260905040722 | 72 | 69 | 0.0 | 0.0 | 0.00 | 0.00 | 0.00 | 94 | 1017.5 |
| 20260905040221 | 72 | 256 | 0.0 | 1.0 | 0.00 | 0.00 | 0.00 | 94 | 1017.7 |
| 20260905035720 | 72 | 245 | 0.0 | 0.0 | 0.00 | 0.55 | 0.55 | 94 | 1017.9 |
| 20260905035217 | 72 | 325 | 0.0 | 0.0 | 0.00 | 0.55 | 0.55 | 94 | 1018.0 |
| 20260905034713 | 72 | 163 | 0.0 | 0.0 | 0.00 | 0.55 | 0.55 | 94 | 1018.0 |
| 20260905034212 | 72 | 168 | 0.0 | 1.0 | 0.00 | 0.55 | 0.55 | 94 | 1017.8 |
| 20260905033711 | 72 | 250 | 0.0 | 0.0 | 0.02 | 0.55 | 0.55 | 94 | 1017.7 |
| 20260905033207 | 72 | 250 | 0.0 | 0.0 | 0.02 | 0.55 | 0.55 | 94 | 1017.7 |
| 20260905032706 | 72 | 250 | 0.0 | 0.0 | 0.00 | 0.55 | 0.55 | 94 | 1017.5 |
| 20260905032201 | 72 | 250 | 0.0 | 0.0 | 0.00 | 0.55 | 0.55 | 94 | 1017.5 |
| 20260905031657 | 72 | 250 | 0.0 | 0.0 | 0.00 | 0.55 | 0.55 | 94 | 1017.3 |
| 20260905031152 | 73 | 249 | 0.0 | 0.0 | 0.00 | 0.55 | 0.55 | 94 | 1017.5 |
| 20260905030647 | 73 | 238 | 0.0 | 0.0 | 0.00 | 0.55 | 0.55 | 94 | 1017.6 |
| 20260905030142 | 73 | 238 | 0.0 | 0.0 | 0.00 | 0.55 | 0.55 | 94 | 1017.6 |
| 20260905025637 | 72 | 330 | 0.0 | 1.0 | 0.00 | 0.55 | 0.55 | 94 | 1017.6 |
| 20260905025133 | 73 | 156 | 0.0 | 0.0 | 0.00 | 0.55 | 0.55 | 94 | 1017.5 |
| 20260905024629 | 73 | 163 | 0.0 | 0.0 | 0.00 | 0.55 | 0.55 | 94 | 1017.4 |
| 20260905024124 | 73 | 330 | 0.0 | 0.0 | 0.00 | 0.55 | 0.55 | 94 | 1017.3 |
| 20260905023619 | 72 | 330 | 0.0 | 0.0 | 0.00 | 0.55 | 0.55 | 94 | 1017.3 |
| 20260905023113 | 73 | 330 | 0.0 | 0.0 | 0.00 | 0.55 | 0.55 | 94 | 1017.5 |
| 20260905022613 | 73 | 330 | 0.0 | 0.0 | 0.00 | 0.55 | 0.55 | 94 | 1017.6 |
| 20260905022108 | 72 | 330 | 0.0 | 0.0 | 0.00 | 0.55 | 0.55 | 94 | 1017.5 |
| 20260905021608 | 72 | 247 | 0.0 | 0.0 | 0.00 | 0.55 | 0.55 | 94 | 1017.3 |
| 20260905021103 | 72 | 216 | 0.0 | 0.0 | 0.00 | 0.55 | 0.55 | 94 | 1017.2 |
| 20260905020603 | 72 | 181 | 0.0 | 0.0 | 0.00 | 0.55 | 0.55 | 94 | 1017.2 |
| 20260905020058 | 72 | 181 | 0.0 | 0.0 | 0.00 | 0.55 | 0.55 | 94 | 1016.8 |
| 20260905015557 | 72 | 181 | 0.0 | 0.0 | 0.00 | 0.55 | 0.55 | 94 | 1016.5 |
| 20260905015051 | 72 | 238 | 0.0 | 0.0 | 0.00 | 0.55 | 0.55 | 94 | 1016.8 |
| 20260905014545 | 73 | 238 | 0.0 | 0.0 | 0.00 | 0.55 | 0.55 | 94 | 1016.7 |
| 20260905014041 | 73 | 251 | 0.0 | 0.0 | 0.00 | 0.55 | 0.55 | 94 | 1016.7 |
| 20260905013537 | 73 | 233 | 0.0 | 0.0 | 0.00 | 0.55 | 0.55 | 94 | 1016.5 |
| 20260905013033 | 73 | 233 | 0.0 | 0.0 | 0.00 | 0.55 | 0.55 | 94 | 1016.2 |
| 20260905012527 | 73 | 150 | 0.0 | 0.0 | 0.00 | 0.55 | 0.55 | 94 | 1016.5 |
| 20260905012024 | 73 | 138 | 0.0 | 0.0 | 0.00 | 0.55 | 0.55 | 94 | 1016.4 |
| 20260905011520 | 73 | 138 | 0.0 | 0.0 | 0.00 | 0.55 | 0.55 | 94 | 1016.3 |
| 20260905011015 | 73 | 138 | 0.0 | 0.0 | 0.00 | 0.55 | 0.55 | 94 | 1016.2 |
| 20260905010515 | 73 | 138 | 0.0 | 0.0 | 0.00 | 0.55 | 0.55 | 94 | 1016.4 |
| 20260905010011 | 73 | 138 | 0.0 | 0.0 | 0.00 | 0.55 | 0.55 | 94 | 1016.4 |
| 20260905005507 | 73 | 138 | 0.0 | 0.0 | 0.00 | 0.55 | 0.55 | 94 | 1016.1 |
| 20260905005002 | 73 | 138 | 0.0 | 0.0 | 0.00 | 0.55 | 0.55 | 94 | 1015.8 |
| 20260905004457 | 73 | 138 | 0.0 | 0.0 | 0.00 | 0.55 | 0.55 | 94 | 1016.0 |
| 20260905003952 | 73 | 138 | 0.0 | 0.0 | 0.00 | 0.55 | 0.55 | 94 | 1015.9 |
| 20260905003448 | 73 | 138 | 0.0 | 0.0 | 0.00 | 0.55 | 0.55 | 93 | 1016.2 |
| 20260905002943 | 73 | 138 | 0.0 | 0.0 | 0.00 | 0.55 | 0.55 | 93 | 1016.2 |
| 20260905002444 | 73 | 290 | 0.0 | 0.0 | 0.00 | 0.55 | 0.55 | 93 | 1016.7 |
| 20260905001943 | 73 | 239 | 0.0 | 0.0 | 0.00 | 0.55 | 0.55 | 93 | 1016.5 |
| 20260905001438 | 73 | 256 | 0.0 | 0.0 | 0.00 | 0.55 | 0.55 | 93 | 1016.4 |
| 20260905000932 | 73 | 290 | 0.0 | 0.0 | 0.00 | 0.55 | 0.55 | 93 | 1016.5 |
| 20260905000429 | 73 | 150 | 0.0 | 0.0 | 0.00 | 0.55 | 0.55 | 93 | 1016.7 |
| 20260904235924 | 73 | 143 | 0.0 | 0.0 | 0.00 | 0.55 | 0.55 | 93 | 1016.8 |
| 20260904235420 | 73 | 251 | 0.0 | 0.0 | 0.00 | 0.55 | 0.55 | 93 | 1016.9 |
| 20260904234920 | 73 | 251 | 0.0 | 0.0 | 0.00 | 0.55 | 0.55 | 93 | 1016.9 |
| 20260904234419 | 73 | 251 | 0.0 | 0.0 | 0.00 | 0.55 | 0.55 | 93 | 1016.4 |
| 20260904233915 | 73 | 251 | 0.0 | 0.0 | 0.00 | 0.55 | 0.55 | 93 | 1016.8 |
| 20260904233410 | 73 | 251 | 0.0 | 0.0 | 0.00 | 0.55 | 0.55 | 93 | 1016.9 |
| 20260904232907 | 74 | 326 | 0.0 | 2.0 | 0.00 | 0.55 | 0.55 | 93 | 1016.8 |
| 20260904232404 | 74 | 326 | 0.0 | 2.0 | 0.00 | 0.55 | 0.55 | 93 | 1017.1 |
| 20260904231859 | 74 | 326 | 0.0 | 2.0 | 0.00 | 0.55 | 0.55 | 93 | 1016.7 |
| 20260904231354 | 73 | 145 | 2.0 | 3.0 | 0.00 | 0.55 | 0.55 | 92 | 1016.3 |
| 20260904230849 | 73 | 145 | 2.0 | 3.0 | 0.00 | 0.55 | 0.55 | 92 | 1017.0 |
| 20260904230348 | 73 | 145 | 2.0 | 3.0 | 0.00 | 0.55 | 0.55 | 92 | 1016.3 |
| 20260904225843 | 73 | 145 | 2.0 | 3.0 | 0.00 | 0.55 | 0.55 | 92 | 1015.4 |
| 20260904225341 | 73 | 145 | 2.0 | 3.0 | 0.00 | 0.55 | 0.55 | 92 | 1015.3 |
| 20260904224841 | 73 | 145 | 2.0 | 3.0 | 0.00 | 0.55 | 0.55 | 92 | 1015.2 |
| 20260904224337 | 73 | 145 | 2.0 | 3.0 | 0.02 | 0.55 | 0.55 | 92 | 1015.3 |
| 20260904223836 | 73 | 145 | 2.0 | 3.0 | 0.02 | 0.55 | 0.55 | 92 | 1015.5 |
| 20260904223330 | 73 | 86 | 2.0 | 2.0 | 0.00 | 0.54 | 0.54 | 92 | 1016.4 |
| 20260904222827 | 73 | 86 | 2.0 | 2.0 | 0.00 | 0.54 | 0.54 | 92 | 1016.7 |
| 20260904222321 | 73 | 86 | 2.0 | 2.0 | 0.00 | 0.54 | 0.54 | 92 | 1016.9 |
| 20260904221821 | 73 | 140 | 2.0 | 2.0 | 0.26 | 0.54 | 0.54 | 91 | 1017.2 |
| 20260904221316 | 73 | 140 | 2.0 | 2.0 | 1.37 | 0.54 | 0.54 | 91 | 1017.4 |
| 20260904220812 | 73 | 140 | 2.0 | 3.0 | 1.30 | 0.50 | 0.50 | 91 | 1017.5 |
| 20260904220310 | 74 | 190 | 4.0 | 4.0 | 0.21 | 0.32 | 0.32 | 91 | 1018.9 |
| 20260904215806 | 74 | 79 | 0.0 | 2.0 | 0.52 | 0.28 | 0.28 | 91 | 1018.8 |
| 20260904215305 | 74 | 281 | 2.0 | 2.0 | 0.80 | 0.27 | 0.27 | 90 | 1018.0 |
| 20260904214757 | 74 | 271 | 2.0 | 3.0 | 1.16 | 0.19 | 0.19 | 89 | 1017.5 |
| 20260904214253 | 75 | 263 | 0.0 | 1.0 | 0.61 | 0.10 | 0.10 | 86 | 1017.2 |
| 20260904213750 | 75 | 234 | 1.0 | 2.0 | 0.00 | 0.00 | 0.00 | 84 | 1018.0 |
| 20260904213247 | 75 | 163 | 2.0 | 3.0 | 0.00 | 0.00 | 0.00 | 83 | 1018.1 |
| 20260904212742 | 76 | 279 | 2.0 | 2.0 | 0.00 | 0.00 | 0.00 | 81 | 1018.1 |
| 20260904212241 | 77 | 195 | 2.0 | 4.0 | 0.00 | 0.00 | 0.00 | 77 | 1017.9 |
| 20260904211736 | 80 | 276 | 4.0 | 5.0 | 0.00 | 0.00 | 0.00 | 71 | 1018.4 |
| 20260904211231 | 84 | 149 | 3.0 | 12.0 | 0.00 | 0.00 | 0.00 | 59 | 1018.4 |
| 20260904210726 | 87 | 324 | 4.0 | 4.0 | 0.00 | 0.00 | 0.00 | 59 | 1017.9 |
| 20260904210221 | 88 | 40 | 0.0 | 0.0 | 0.00 | 0.00 | 0.00 | 59 | 1016.4 |
| 20260904205717 | 88 | 40 | 0.0 | 0.0 | 0.00 | 0.00 | 0.00 | 59 | 1015.4 |
| 20260904205208 | 89 | 183 | 1.0 | 2.0 | 0.00 | 0.00 | 0.00 | 62 | 1015.1 |
| 20260904204704 | 89 | 326 | 1.0 | 2.0 | 0.00 | 0.00 | 0.00 | 57 | 1015.5 |
| 20260904204200 | 89 | 223 | 0.0 | 3.0 | 0.00 | 0.00 | 0.00 | 57 | 1015.5 |
| 20260904203656 | 89 | 342 | 0.0 | 0.0 | 0.00 | 0.00 | 0.00 | 60 | 1015.4 |
| 20260904203152 | 89 | 314 | 1.0 | 2.0 | 0.00 | 0.00 | 0.00 | 57 | 1015.4 |
| 20260904202647 | 90 | 292 | 2.0 | 2.0 | 0.00 | 0.00 | 0.00 | 58 | 1015.5 |
| 20260904202144 | 89 | 292 | 0.0 | 3.0 | 0.00 | 0.00 | 0.00 | 56 | 1015.4 |
| 20260904201643 | 88 | 338 | 2.0 | 3.0 | 0.00 | 0.00 | 0.00 | 58 | 1015.3 |
| 20260904201138 | 88 | 338 | 2.0 | 3.0 | 0.00 | 0.00 | 0.00 | 58 | 1015.7 |
| 20260904200638 | 88 | 338 | 2.0 | 3.0 | 0.00 | 0.00 | 0.00 | 58 | 1015.4 |
| 20260904200133 | 87 | 323 | 1.0 | 5.0 | 0.00 | 0.00 | 0.00 | 60 | 1015.9 |
| 20260904195632 | 87 | 347 | 0.0 | 3.0 | 0.00 | 0.00 | 0.00 | 59 | 1016.2 |
| 20260904195126 | 89 | 337 | 2.0 | 3.0 | 0.00 | 0.00 | 0.00 | 56 | 1016.0 |
| 20260904194625 | 90 | 348 | 4.0 | 4.0 | 0.00 | 0.00 | 0.00 | 56 | 1015.8 |
| 20260904194121 | 91 | 346 | 4.0 | 4.0 | 0.00 | 0.00 | 0.00 | 55 | 1015.6 |
| 20260904193621 | 93 | 2 | 1.0 | 4.0 | 0.00 | 0.00 | 0.00 | 52 | 1015.6 |
| 20260904193117 | 94 | 300 | 1.0 | 2.0 | 0.00 | 0.00 | 0.00 | 52 | 1015.7 |
| 20260904192611 | 98 | 315 | 3.0 | 4.0 | 0.00 | 0.00 | 0.00 | 43 | 1015.5 |
| 20260904192107 | 98 | 315 | 3.0 | 4.0 | 0.00 | 0.00 | 0.00 | 43 | 1015.2 |
| 20260904191603 | 98 | 314 | 2.0 | 2.0 | 0.00 | 0.00 | 0.00 | 44 | 1015.4 |
| 20260904191059 | 98 | 327 | 4.0 | 4.0 | 0.00 | 0.00 | 0.00 | 42 | 1015.5 |
| 20260904190554 | 97 | 95 | 1.0 | 1.0 | 0.00 | 0.00 | 0.00 | 47 | 1015.5 |
| 20260904190051 | 97 | 95 | 1.0 | 1.0 | 0.00 | 0.00 | 0.00 | 47 | 1015.7 |
| 20260904185547 | 97 | 95 | 1.0 | 1.0 | 0.00 | 0.00 | 0.00 | 47 | 1015.6 |
| 20260904185042 | 97 | 95 | 1.0 | 1.0 | 0.00 | 0.00 | 0.00 | 47 | 1015.8 |
| 20260904184542 | 97 | 95 | 1.0 | 1.0 | 0.00 | 0.00 | 0.00 | 47 | 1015.8 |
| 20260904184037 | 97 | 95 | 1.0 | 1.0 | 0.00 | 0.00 | 0.00 | 47 | 1015.8 |
| 20260904183532 | 98 | 225 | 2.0 | 3.0 | 0.00 | 0.00 | 0.00 | 42 | 1016.3 |
| 20260904183027 | 98 | 225 | 2.0 | 3.0 | 0.00 | 0.00 | 0.00 | 42 | 1016.4 |
| 20260904182523 | 98 | 225 | 2.0 | 3.0 | 0.00 | 0.00 | 0.00 | 42 | 1016.2 |
| 20260904182023 | 98 | 225 | 2.0 | 3.0 | 0.00 | 0.00 | 0.00 | 42 | 1016.3 |
| 20260904181519 | 98 | 225 | 2.0 | 3.0 | 0.00 | 0.00 | 0.00 | 42 | 1016.5 |
| 20260904181018 | 98 | 225 | 2.0 | 3.0 | 0.00 | 0.00 | 0.00 | 42 | 1016.5 |
| 20260904180513 | 98 | 225 | 2.0 | 3.0 | 0.00 | 0.00 | 0.00 | 42 | 1016.8 |
| 20260904180009 | 98 | 100 | 0.0 | 0.0 | 0.00 | 0.00 | 0.00 | 43 | 1016.8 |
| 20260904175508 | 98 | 289 | 1.0 | 2.0 | 0.00 | 0.00 | 0.00 | 46 | 1017.1 |
| 20260904175001 | 96 | 95 | 2.0 | 2.0 | 0.00 | 0.00 | 0.00 | 47 | 1016.9 |
| 20260904174456 | 96 | 95 | 2.0 | 2.0 | 0.00 | 0.00 | 0.00 | 47 | 1017.0 |
| 20260904173953 | 96 | 95 | 2.0 | 2.0 | 0.00 | 0.00 | 0.00 | 47 | 1017.3 |
| 20260904173450 | 96 | 95 | 2.0 | 2.0 | 0.00 | 0.00 | 0.00 | 47 | 1017.0 |
| 20260904172943 | 96 | 95 | 2.0 | 2.0 | 0.00 | 0.00 | 0.00 | 47 | 1017.3 |
| 20260904172438 | 96 | 114 | 1.0 | 1.0 | 0.00 | 0.00 | 0.00 | 45 | 1017.4 |
| 20260904171938 | 96 | 87 | 2.0 | 2.0 | 0.00 | 0.00 | 0.00 | 43 | 1017.5 |
| 20260904171433 | 0 | 0.0 | 0.0 | 0.00 | 0.00 | 0.00 | 1017.5 | ||
| 20260904170929 | 0 | 0.0 | 0.0 | 0.00 | 0.00 | 0.00 | 1017.4 | ||
| 20260904170424 | 0 | 0.0 | 0.0 | 0.00 | 0.00 | 0.00 | 1017.7 | ||
| 20260904165920 | 0 | 0.0 | 0.0 | 0.00 | 0.00 | 0.00 | 1017.5 | ||
| 20260904165419 | 0 | 0.0 | 0.0 | 0.00 | 0.00 | 0.00 | 1017.2 | ||
| 20260904164918 | 0 | 0.0 | 0.0 | 0.00 | 0.00 | 0.00 | 1017.7 | ||
| 20260904164418 | 0 | 0.0 | 0.0 | 0.00 | 0.00 | 0.00 | 1017.6 | ||
| 20260904163909 | 93 | 342 | 0.0 | 0.0 | 0.00 | 0.00 | 0.00 | 52 | 1017.5 |
| 20260904163409 | 93 | 342 | 0.0 | 0.0 | 0.00 | 0.00 | 0.00 | 52 | 1017.9 |
| 20260904162908 | 93 | 342 | 0.0 | 0.0 | 0.00 | 0.00 | 0.00 | 52 | 1018.0 |
| 20260904162404 | 93 | 342 | 0.0 | 0.0 | 0.00 | 0.00 | 0.00 | 52 | 1017.9 |
| 20260904161859 | 93 | 342 | 0.0 | 0.0 | 0.00 | 0.00 | 0.00 | 52 | 1017.8 |
| 20260904161354 | 93 | 342 | 0.0 | 0.0 | 0.00 | 0.00 | 0.00 | 52 | 1017.9 |
| 20260904160849 | 93 | 342 | 0.0 | 0.0 | 0.00 | 0.00 | 0.00 | 52 | 1017.8 |
| 20260904160344 | 93 | 342 | 0.0 | 0.0 | 0.00 | 0.00 | 0.00 | 52 | 1018.2 |
| 20260904155839 | 93 | 342 | 0.0 | 0.0 | 0.00 | 0.00 | 0.00 | 52 | 1018.0 |
| 20260904155334 | 93 | 342 | 0.0 | 0.0 | 0.00 | 0.00 | 0.00 | 52 | 1017.8 |
| 20260904154832 | 93 | 342 | 0.0 | 0.0 | 0.00 | 0.00 | 0.00 | 52 | 1018.1 |
| 20260904154327 | 93 | 342 | 0.0 | 0.0 | 0.00 | 0.00 | 0.00 | 52 | 1018.1 |
| 20260904153823 | 93 | 175 | 0.0 | 1.0 | 0.00 | 0.00 | 0.00 | 50 | 1018.1 |
| 20260904153318 | 93 | 175 | 0.0 | 1.0 | 0.00 | 0.00 | 0.00 | 50 | 1018.3 |
| 20260904152814 | 94 | 267 | 0.0 | 1.0 | 0.00 | 0.00 | 0.00 | 48 | 1018.4 |
| 20260904152309 | 94 | 267 | 0.0 | 1.0 | 0.00 | 0.00 | 0.00 | 48 | 1018.1 |
| 20260904151804 | 94 | 83 | 0.0 | 0.0 | 0.00 | 0.00 | 0.00 | 51 | 1018.1 |
| 20260904151303 | 88 | 85 | 2.0 | 2.0 | 0.00 | 0.00 | 0.00 | 57 | 1018.2 |
| 20260904150759 | 88 | 85 | 2.0 | 2.0 | 0.00 | 0.00 | 0.00 | 57 | 1018.0 |
| 20260904150254 | 88 | 85 | 2.0 | 2.0 | 0.00 | 0.00 | 0.00 | 57 | 1018.2 |
| 20260904145752 | 88 | 85 | 2.0 | 2.0 | 0.00 | 0.00 | 0.00 | 57 | 1018.0 |
| 20260904145248 | 88 | 85 | 2.0 | 2.0 | 0.00 | 0.00 | 0.00 | 57 | 1018.2 |
| 20260904144743 | 88 | 85 | 2.0 | 2.0 | 0.00 | 0.00 | 0.00 | 57 | 1018.0 |
| 20260904144239 | 88 | 201 | 1.0 | 1.0 | 0.00 | 0.00 | 0.00 | 59 | 1018.0 |
| 20260904143734 | 88 | 354 | 0.0 | 1.0 | 0.00 | 0.00 | 0.00 | 58 | 1017.9 |
| 20260904143231 | 88 | 241 | 0.0 | 0.0 | 0.00 | 0.00 | 0.00 | 57 | 1017.9 |
| 20260904142727 | 88 | 71 | 0.0 | 0.0 | 0.00 | 0.00 | 0.00 | 59 | 1018.0 |
| 20260904142223 | 88 | 84 | 0.0 | 0.0 | 0.00 | 0.00 | 0.00 | 58 | 1017.9 |
| 20260904141722 | 87 | 222 | 1.0 | 1.0 | 0.00 | 0.00 | 0.00 | 59 | 1017.9 |
| 20260904141218 | 87 | 250 | 0.0 | 0.0 | 0.00 | 0.00 | 0.00 | 59 | 1018.0 |
| 20260904140713 | 87 | 142 | 0.0 | 0.0 | 0.00 | 0.00 | 0.00 | 59 | 1017.9 |
| 20260904140209 | 87 | 290 | 0.0 | 0.0 | 0.00 | 0.00 | 0.00 | 60 | 1018.0 |
| 20260904135707 | 87 | 71 | 0.0 | 1.0 | 0.00 | 0.00 | 0.00 | 62 | 1018.2 |
| 20260904135203 | 87 | 248 | 1.0 | 2.0 | 0.00 | 0.00 | 0.00 | 59 | 1018.2 |
| 20260904134659 | 87 | 251 | 0.0 | 1.0 | 0.00 | 0.00 | 0.00 | 60 | 1018.0 |
| 20260904134158 | 87 | 251 | 0.0 | 0.0 | 0.00 | 0.00 | 0.00 | 60 | 1017.9 |
| 20260904133653 | 87 | 251 | 0.0 | 2.0 | 0.00 | 0.00 | 0.00 | 61 | 1018.2 |
| 20260904133149 | 87 | 71 | 0.0 | 1.0 | 0.00 | 0.00 | 0.00 | 66 | 1017.8 |
| 20260904132648 | 86 | 330 | 0.0 | 0.0 | 0.00 | 0.00 | 0.00 | 66 | 1018.1 |
| 20260904132143 | 86 | 305 | 0.0 | 0.0 | 0.00 | 0.00 | 0.00 | 65 | 1018.2 |
| 20260904131643 | 86 | 305 | 0.0 | 0.0 | 0.00 | 0.00 | 0.00 | 65 | 1018.1 |
| 20260904131139 | 86 | 251 | 0.0 | 1.0 | 0.00 | 0.00 | 0.00 | 67 | 1018.1 |
| 20260904130638 | 86 | 282 | 1.0 | 1.0 | 0.00 | 0.00 | 0.00 | 67 | 1017.9 |
| 20260904130133 | 86 | 282 | 1.0 | 1.0 | 0.00 | 0.00 | 0.00 | 67 | 1017.8 |
| 20260904125629 | 86 | 139 | 0.0 | 0.0 | 0.00 | 0.00 | 0.00 | 64 | 1017.7 |
| 20260904125124 | 86 | 128 | 1.0 | 1.0 | 0.00 | 0.00 | 0.00 | 65 | 1017.8 |
| 20260904124619 | 80 | 304 | 0.0 | 2.0 | 0.00 | 0.00 | 0.00 | 81 | 1017.7 |
| 20260904124115 | 80 | 304 | 0.0 | 2.0 | 0.00 | 0.00 | 0.00 | 81 | 1017.9 |
| 20260904123615 | 80 | 348 | 0.0 | 2.0 | 0.00 | 0.00 | 0.00 | 81 | 1017.9 |
| 20260904123110 | 80 | 317 | 0.0 | 2.0 | 0.00 | 0.00 | 0.00 | 82 | 1017.8 |
| 20260904122605 | 78 | 143 | 0.0 | 0.0 | 0.00 | 0.00 | 0.00 | 82 | 1017.7 |
| 20260904122100 | 78 | 151 | 0.0 | 0.0 | 0.00 | 0.00 | 0.00 | 82 | 1017.8 |
| 20260904121555 | 78 | 135 | 0.0 | 1.0 | 0.00 | 0.00 | 0.00 | 83 | 1017.7 |
| 20260904121051 | 77 | 201 | 0.0 | 0.0 | 0.00 | 0.00 | 0.00 | 85 | 1017.6 |
| 20260904120548 | 77 | 160 | 0.0 | 1.0 | 0.00 | 0.00 | 0.00 | 85 | 1017.7 |
| 20260904120043 | 77 | 290 | 0.0 | 1.0 | 0.00 | 0.00 | 0.00 | 86 | 1017.7 |
| 20260904115538 | 76 | 290 | 0.0 | 0.0 | 0.00 | 0.00 | 0.00 | 86 | 1017.8 |
| 20260904115033 | 76 | 290 | 0.0 | 0.0 | 0.00 | 0.00 | 0.00 | 88 | 1017.8 |
| 20260904114527 | 75 | 238 | 0.0 | 0.0 | 0.00 | 0.00 | 0.00 | 89 | 1017.8 |
| 20260904114022 | 75 | 330 | 0.0 | 0.0 | 0.00 | 0.00 | 0.00 | 90 | 1017.8 |
| 20260904113522 | 74 | 245 | 0.0 | 1.0 | 0.00 | 0.00 | 0.00 | 91 | 1017.5 |
| 20260904113021 | 74 | 290 | 0.0 | 1.0 | 0.00 | 0.00 | 0.00 | 91 | 1017.7 |
| 20260904112516 | 74 | 238 | 0.0 | 0.0 | 0.00 | 0.00 | 0.00 | 91 | 1017.8 |
| 20260904112012 | 73 | 263 | 0.0 | 0.0 | 0.00 | 0.00 | 0.00 | 91 | 1017.7 |
| 20260904111508 | 73 | 150 | 0.0 | 0.0 | 0.00 | 0.00 | 0.00 | 91 | 1017.5 |
| 20260904111004 | 73 | 234 | 0.0 | 0.0 | 0.00 | 0.00 | 0.00 | 91 | 1017.8 |
| 20260904110503 | 73 | 263 | 0.0 | 1.0 | 0.00 | 0.00 | 0.00 | 91 | 1017.6 |
| 20260904105953 | 73 | 251 | 0.0 | 1.0 | 0.00 | 0.00 | 0.00 | 91 | 1017.6 |
| 20260904105452 | 73 | 138 | 0.0 | 1.0 | 0.00 | 0.00 | 0.00 | 91 | 1017.7 |
| 20260904104948 | 73 | 308 | 0.0 | 0.0 | 0.00 | 0.00 | 0.00 | 91 | 1017.7 |
| 20260904104448 | 73 | 217 | 1.0 | 1.0 | 0.00 | 0.00 | 0.00 | 91 | 1017.6 |
| 20260904103939 | 73 | 251 | 0.0 | 0.0 | 0.00 | 0.00 | 0.00 | 91 | 1017.6 |
| 20260904103434 | 73 | 335 | 0.0 | 1.0 | 0.00 | 0.00 | 0.00 | 91 | 1017.6 |
| 20260904102930 | 73 | 290 | 0.0 | 0.0 | 0.00 | 0.00 | 0.00 | 91 | 1017.6 |
| 20260904102425 | 73 | 233 | 0.0 | 0.0 | 0.00 | 0.00 | 0.00 | 90 | 1017.6 |
| 20260904101920 | 73 | 311 | 0.0 | 1.0 | 0.00 | 0.00 | 0.00 | 90 | 1017.5 |
| 20260904101417 | 73 | 181 | 0.0 | 1.0 | 0.00 | 0.00 | 0.00 | 90 | 1017.5 |
| 20260904100907 | 74 | 243 | 0.0 | 1.0 | 0.00 | 0.00 | 0.00 | 90 | 1017.6 |
| 20260904100403 | 74 | 251 | 0.0 | 0.0 | 0.00 | 0.00 | 0.00 | 90 | 1017.5 |
| 20260904095856 | 74 | 58 | 0.0 | 1.0 | 0.00 | 0.00 | 0.00 | 90 | 1017.4 |
| 20260904095351 | 74 | 308 | 0.0 | 1.0 | 0.00 | 0.00 | 0.00 | 90 | 1017.4 |
| 20260904094847 | 74 | 140 | 0.0 | 2.0 | 0.00 | 0.00 | 0.00 | 90 | 1017.4 |
| 20260904094342 | 74 | 215 | 0.0 | 1.0 | 0.00 | 0.00 | 0.00 | 90 | 1017.3 |
| 20260904093838 | 74 | 87 | 0.0 | 1.0 | 0.00 | 0.00 | 0.00 | 90 | 1017.3 |
| 20260904093338 | 74 | 104 | 0.0 | 1.0 | 0.00 | 0.00 | 0.00 | 90 | 1017.7 |
| 20260904092833 | 74 | 209 | 0.0 | 1.0 | 0.00 | 0.00 | 0.00 | 90 | 1017.5 |
| 20260904092330 | 74 | 249 | 0.0 | 1.0 | 0.00 | 0.00 | 0.00 | 89 | 1017.8 |
| 20260904091826 | 74 | 110 | 0.0 | 1.0 | 0.00 | 0.00 | 0.00 | 89 | 1017.8 |
| 20260904091321 | 74 | 238 | 0.0 | 1.0 | 0.00 | 0.00 | 0.00 | 89 | 1017.8 |
| 20260904090815 | 75 | 245 | 0.0 | 0.0 | 0.00 | 0.00 | 0.00 | 89 | 1017.8 |
| 20260904090312 | 75 | 347 | 0.0 | 0.0 | 0.00 | 0.00 | 0.00 | 88 | 1017.9 |
| 20260904085806 | 75 | 290 | 0.0 | 0.0 | 0.00 | 0.00 | 0.00 | 88 | 1018.0 |
| 20260904085256 | 75 | 150 | 0.0 | 0.0 | 0.00 | 0.00 | 0.00 | 88 | 1017.8 |
| 20260904084750 | 75 | 183 | 0.0 | 0.0 | 0.00 | 0.00 | 0.00 | 87 | 1017.7 |
| 20260904084246 | 75 | 137 | 0.0 | 1.0 | 0.00 | 0.00 | 0.00 | 87 | 1017.6 |
| 20260904083742 | 75 | 182 | 0.0 | 0.0 | 0.00 | 0.00 | 0.00 | 86 | 1017.6 |